ACA595 CYYZ-KIAH

Flight info

Callsign ACA595
Flight time 3h 9m
Altitude 36000
Route MIXUT7 GNTRY DCT RINTE DCT TIIDE Q31 DHART Q33 SWEUP GESNR2
Aircraft B738/M-SDE2E3FGHIRWXY/LB1

Departure

Time 2026-05-07 17:41
Airport Toronto Pearson International Airport (CYYZ)

Arrival

Time 2026-05-07 20:51
Airport George Bush Intercontinental Airport (KIAH)
Time Latitude Longitude Altitude Speed Heading
2026-05-07 17:02 43.67911 -79.61052 566 ft 0 kts 274°
2026-05-07 17:26 43.67913 -79.61043 567 ft 4 kts 321°
2026-05-07 17:26 43.67908 -79.61016 560 ft 4 kts 268°
2026-05-07 17:27 43.67913 -79.60981 560 ft 4 kts 246°
2026-05-07 17:27 43.67926 -79.60953 570 ft 2 kts 221°
2026-05-07 17:27 43.67927 -79.60953 570 ft 1 kts 221°
2026-05-07 17:30 43.67924 -79.60956 570 ft 1 kts 220°
2026-05-07 17:31 43.67908 -79.60969 560 ft 4 kts 205°
2026-05-07 17:31 43.67875 -79.60976 566 ft 6 kts 182°
2026-05-07 17:31 43.67830 -79.60956 564 ft 8 kts 146°
2026-05-07 17:31 43.67786 -79.60905 562 ft 9 kts 131°
2026-05-07 17:32 43.67739 -79.60839 560 ft 10 kts 136°
2026-05-07 17:32 43.67681 -79.60770 560 ft 12 kts 155°
2026-05-07 17:32 43.67615 -79.60810 563 ft 11 kts 224°
2026-05-07 17:32 43.67578 -79.60862 567 ft 11 kts 226°
2026-05-07 17:33 43.67515 -79.60976 560 ft 12 kts 242°
2026-05-07 17:33 43.67484 -79.61095 563 ft 15 kts 259°
2026-05-07 17:33 43.67485 -79.61241 566 ft 15 kts 278°
2026-05-07 17:33 43.67517 -79.61373 561 ft 14 kts 297°
2026-05-07 17:34 43.67580 -79.61476 561 ft 14 kts 315°
2026-05-07 17:34 43.67647 -79.61566 561 ft 13 kts 314°
2026-05-07 17:34 43.67636 -79.61682 567 ft 13 kts 255°
2026-05-07 17:34 43.67678 -79.61782 562 ft 12 kts 315°
2026-05-07 17:35 43.67739 -79.61865 562 ft 12 kts 320°
2026-05-07 17:35 43.67803 -79.61946 565 ft 13 kts 315°
2026-05-07 17:35 43.67872 -79.62036 564 ft 14 kts 320°
2026-05-07 17:35 43.67964 -79.62096 563 ft 15 kts 318°
2026-05-07 17:36 43.68041 -79.62191 561 ft 14 kts 317°
2026-05-07 17:36 43.68111 -79.62285 561 ft 14 kts 316°
2026-05-07 17:36 43.68181 -79.62372 561 ft 14 kts 318°
2026-05-07 17:36 43.68257 -79.62464 561 ft 15 kts 322°
2026-05-07 17:37 43.68336 -79.62562 561 ft 15 kts 314°
2026-05-07 17:37 43.68415 -79.62665 561 ft 16 kts 315°
2026-05-07 17:37 43.68500 -79.62777 561 ft 17 kts 318°
2026-05-07 17:37 43.68585 -79.62886 561 ft 16 kts 315°
2026-05-07 17:38 43.68638 -79.62959 563 ft 16 kts 315°
2026-05-07 17:38 43.68718 -79.63062 561 ft 15 kts 317°
2026-05-07 17:38 43.68795 -79.63162 561 ft 15 kts 316°
2026-05-07 17:38 43.68869 -79.63258 561 ft 14 kts 317°
2026-05-07 17:39 43.68941 -79.63349 563 ft 14 kts 314°
2026-05-07 17:39 43.69011 -79.63442 563 ft 15 kts 320°
2026-05-07 17:39 43.69085 -79.63532 570 ft 14 kts 346°
2026-05-07 17:39 43.69161 -79.63467 567 ft 13 kts 43°
2026-05-07 17:40 43.69242 -79.63423 565 ft 13 kts
2026-05-07 17:40 43.69340 -79.63423 566 ft 15 kts 351°
2026-05-07 17:40 43.69408 -79.63501 560 ft 9 kts 284°
2026-05-07 17:40 43.69393 -79.63539 562 ft 5 kts 230°
2026-05-07 17:41 43.69307 -79.63668 561 ft 47 kts 227°
2026-05-07 17:41 43.68914 -79.64229 567 ft 120 kts 226°
2026-05-07 17:41 43.68185 -79.65316 811 ft 175 kts 227°
2026-05-07 17:41 43.67375 -79.66531 2087 ft 156 kts 228°
2026-05-07 17:42 43.66622 -79.67543 2790 ft 163 kts 229°
2026-05-07 17:42 43.65867 -79.68906 3399 ft 196 kts 238°
2026-05-07 17:42 43.65047 -79.70554 4250 ft 212 kts 236°
2026-05-07 17:42 43.64133 -79.72265 5013 ft 227 kts 235°
2026-05-07 17:43 43.62991 -79.73924 5489 ft 251 kts 223°
2026-05-07 17:43 43.61619 -79.75466 6317 ft 257 kts 220°
2026-05-07 17:43 43.60203 -79.77002 7231 ft 259 kts 220°
2026-05-07 17:43 43.58783 -79.78550 8166 ft 261 kts 221°
2026-05-07 17:44 43.57358 -79.80121 9068 ft 263 kts 221°
2026-05-07 17:44 43.55927 -79.81715 9951 ft 265 kts 221°
2026-05-07 17:44 43.54473 -79.83346 10521 ft 278 kts 222°
2026-05-07 17:44 43.52914 -79.85109 10704 ft 302 kts 222°
2026-05-07 17:45 43.51226 -79.87024 10900 ft 325 kts 222°
2026-05-07 17:45 43.49421 -79.89073 11066 ft 346 kts 222°
2026-05-07 17:45 43.47537 -79.91210 11271 ft 364 kts 222°
2026-05-07 17:45 43.45558 -79.93453 11819 ft 370 kts 222°
2026-05-07 17:46 43.43561 -79.95713 12526 ft 372 kts 222°
2026-05-07 17:46 43.41562 -79.97976 13246 ft 374 kts 223°
2026-05-07 17:46 43.39608 -80.00188 13910 ft 376 kts 223°
2026-05-07 17:46 43.37576 -80.02488 14548 ft 379 kts 223°
2026-05-07 17:47 43.35535 -80.04798 15207 ft 381 kts 223°
2026-05-07 17:47 43.33487 -80.07113 15879 ft 383 kts 223°
2026-05-07 17:47 43.31421 -80.09444 16523 ft 385 kts 223°
2026-05-07 17:47 43.29386 -80.11840 17129 ft 386 kts 227°
2026-05-07 17:48 43.27456 -80.14416 17739 ft 388 kts 228°
2026-05-07 17:48 43.25531 -80.17033 18335 ft 390 kts 228°
2026-05-07 17:48 43.23588 -80.19654 18884 ft 392 kts 228°
2026-05-07 17:48 43.21634 -80.22268 19418 ft 394 kts 228°
2026-05-07 17:49 43.19813 -80.25065 19942 ft 393 kts 235°
2026-05-07 17:49 43.18294 -80.28172 20466 ft 392 kts 243°
2026-05-07 17:49 43.17076 -80.31514 20975 ft 393 kts 245°
2026-05-07 17:49 43.15874 -80.34894 21460 ft 395 kts 245°
2026-05-07 17:50 43.14678 -80.38239 21901 ft 397 kts 245°
2026-05-07 17:50 43.13454 -80.41645 22358 ft 399 kts 245°
2026-05-07 17:50 43.12222 -80.45057 22843 ft 401 kts 245°
2026-05-07 17:50 43.10979 -80.48482 23304 ft 402 kts 245°
2026-05-07 17:51 43.09731 -80.51914 23685 ft 404 kts 245°
2026-05-07 17:51 43.08474 -80.55364 24044 ft 405 kts 245°
2026-05-07 17:51 43.07212 -80.58820 24433 ft 405 kts 245°
2026-05-07 17:51 43.05952 -80.62269 24793 ft 406 kts 245°
2026-05-07 17:52 43.04689 -80.65719 25130 ft 406 kts 245°
2026-05-07 17:52 43.03424 -80.69173 25454 ft 407 kts 245°
2026-05-07 17:52 43.02168 -80.72596 25773 ft 407 kts 245°
2026-05-07 17:52 43.00896 -80.76060 26066 ft 407 kts 245°
2026-05-07 17:53 42.99625 -80.79516 26429 ft 406 kts 245°
2026-05-07 17:53 42.98361 -80.82950 26848 ft 402 kts 245°
2026-05-07 17:53 42.97108 -80.86348 27320 ft 399 kts 245°
2026-05-07 17:53 42.95867 -80.89712 27816 ft 395 kts 245°
2026-05-07 17:54 42.94634 -80.93048 28283 ft 392 kts 245°
2026-05-07 17:54 42.93409 -80.96361 28729 ft 389 kts 245°
2026-05-07 17:54 42.92193 -80.99645 29201 ft 386 kts 245°
2026-05-07 17:54 42.90988 -81.02898 29699 ft 383 kts 245°
2026-05-07 17:55 42.89789 -81.06131 30165 ft 380 kts 245°
2026-05-07 17:55 42.88596 -81.09342 30474 ft 379 kts 245°
2026-05-07 17:55 42.87402 -81.12551 30795 ft 379 kts 245°
2026-05-07 17:55 42.86222 -81.15721 31084 ft 380 kts 245°
2026-05-07 17:56 42.85024 -81.18935 31368 ft 380 kts 245°
2026-05-07 17:56 42.83824 -81.22151 31651 ft 381 kts 245°
2026-05-07 17:56 42.82622 -81.25367 31958 ft 381 kts 245°
2026-05-07 17:56 42.81419 -81.28588 32235 ft 382 kts 245°
2026-05-07 17:57 42.80211 -81.31819 32507 ft 382 kts 245°
2026-05-07 17:57 42.79395 -81.33997 32692 ft 383 kts 245°
2026-05-07 17:57 42.77788 -81.38282 33034 ft 384 kts 245°
2026-05-07 17:57 42.76442 -81.41452 33163 ft 390 kts 240°
2026-05-07 17:58 42.74809 -81.44432 33315 ft 396 kts 233°
2026-05-07 17:58 42.72926 -81.47187 33480 ft 399 kts 232°
2026-05-07 17:58 42.71018 -81.49935 33700 ft 399 kts 232°
2026-05-07 17:58 42.69110 -81.52685 33906 ft 400 kts 232°
2026-05-07 17:59 42.67201 -81.55446 34070 ft 401 kts 232°
2026-05-07 17:59 42.65298 -81.58204 34253 ft 400 kts 232°
2026-05-07 17:59 42.63394 -81.60969 34449 ft 400 kts 232°
2026-05-07 17:59 42.61514 -81.63698 34595 ft 401 kts 232°
2026-05-07 18:00 42.59586 -81.66497 34762 ft 401 kts 232°
2026-05-07 18:00 42.57701 -81.69230 34908 ft 401 kts 232°
2026-05-07 18:00 42.53904 -81.74727 34949 ft 398 kts 232°
2026-05-07 18:01 42.49997 -81.80077 34945 ft 404 kts 226°
2026-05-07 18:01 42.45537 -81.84782 34949 ft 407 kts 225°
2026-05-07 18:02 42.38817 -81.91822 34949 ft 407 kts 225°
2026-05-07 18:03 42.34352 -81.96516 34951 ft 406 kts 225°
2026-05-07 18:03 42.29896 -82.01201 34947 ft 405 kts 225°
2026-05-07 18:04 42.25474 -82.05844 34955 ft 405 kts 225°
2026-05-07 18:04 42.21024 -82.10509 34954 ft 405 kts 225°
2026-05-07 18:05 42.16564 -82.15177 35239 ft 405 kts 225°
2026-05-07 18:05 42.14338 -82.17502 35452 ft 404 kts 225°
2026-05-07 18:05 42.12112 -82.19824 35627 ft 404 kts 225°
2026-05-07 18:05 42.09888 -82.22144 35790 ft 404 kts 225°
2026-05-07 18:06 42.07663 -82.24463 35935 ft 405 kts 225°
2026-05-07 18:06 42.03197 -82.29110 35951 ft 405 kts 225°
2026-05-07 18:07 41.98774 -82.33703 35959 ft 404 kts 225°
2026-05-07 18:07 41.94337 -82.38301 35962 ft 402 kts 225°
2026-05-07 18:08 41.89909 -82.42885 35973 ft 402 kts 225°
2026-05-07 18:08 41.85483 -82.47458 35979 ft 402 kts 225°
2026-05-07 18:09 41.81048 -82.52032 35974 ft 402 kts 225°
2026-05-07 18:09 41.76609 -82.56602 35978 ft 402 kts 225°
2026-05-07 18:10 41.72165 -82.61167 35976 ft 402 kts 225°
2026-05-07 18:10 41.67716 -82.65731 35976 ft 403 kts 225°
2026-05-07 18:11 41.63265 -82.70287 35971 ft 403 kts 225°
2026-05-07 18:11 41.58812 -82.74839 35983 ft 403 kts 225°
2026-05-07 18:12 41.54383 -82.79356 35967 ft 403 kts 225°
2026-05-07 18:12 41.49934 -82.83887 35972 ft 403 kts 225°
2026-05-07 18:13 41.45469 -82.88426 35967 ft 403 kts 225°
2026-05-07 18:13 41.41008 -82.92953 35968 ft 403 kts 225°
2026-05-07 18:14 41.36548 -82.97471 35973 ft 403 kts 225°
2026-05-07 18:14 41.32090 -83.01979 35980 ft 403 kts 225°
2026-05-07 18:15 41.27657 -83.06453 35983 ft 402 kts 225°
2026-05-07 18:15 41.23195 -83.10950 35987 ft 402 kts 225°
2026-05-07 18:16 41.18735 -83.15436 35999 ft 402 kts 225°
2026-05-07 18:16 41.14274 -83.19915 35997 ft 402 kts 225°
2026-05-07 18:17 41.09815 -83.24384 35988 ft 402 kts 225°
2026-05-07 18:17 41.05357 -83.28846 35996 ft 401 kts 225°
2026-05-07 18:18 41.00897 -83.33301 35999 ft 401 kts 225°
2026-05-07 18:18 40.96438 -83.37747 35999 ft 401 kts 226°
2026-05-07 18:19 40.91978 -83.42186 35997 ft 401 kts 226°
2026-05-07 18:19 40.87518 -83.46618 35992 ft 401 kts 226°
2026-05-07 18:20 40.83088 -83.51013 35996 ft 401 kts 226°
2026-05-07 18:20 40.78600 -83.55457 35999 ft 400 kts 226°
2026-05-07 18:21 40.74169 -83.59838 36003 ft 400 kts 226°
2026-05-07 18:21 40.69710 -83.64238 36013 ft 400 kts 226°
2026-05-07 18:22 40.65247 -83.68635 36021 ft 400 kts 226°
2026-05-07 18:22 40.60790 -83.73020 36023 ft 400 kts 226°
2026-05-07 18:23 40.56331 -83.77397 36028 ft 400 kts 226°
2026-05-07 18:23 40.51870 -83.81771 36031 ft 400 kts 226°
2026-05-07 18:24 40.47441 -83.86105 36025 ft 399 kts 226°
2026-05-07 18:24 40.42980 -83.90463 36016 ft 399 kts 226°
2026-05-07 18:25 40.39269 -83.94084 36020 ft 399 kts 226°
2026-05-07 18:25 40.34807 -83.98432 36017 ft 399 kts 226°
2026-05-07 18:26 40.30354 -84.02764 36022 ft 398 kts 227°
2026-05-07 18:26 40.26442 -84.07675 36043 ft 384 kts 237°
2026-05-07 18:27 40.22921 -84.12959 36031 ft 385 kts 237°
2026-05-07 18:27 40.19398 -84.18211 36030 ft 386 kts 237°
2026-05-07 18:28 40.15841 -84.23488 36035 ft 386 kts 237°
2026-05-07 18:28 40.12300 -84.28727 36036 ft 386 kts 237°
2026-05-07 18:29 40.08737 -84.33986 36036 ft 386 kts 237°
2026-05-07 18:29 40.05174 -84.39237 36030 ft 386 kts 237°
2026-05-07 18:30 40.01609 -84.44482 36035 ft 386 kts 237°
2026-05-07 18:30 39.98050 -84.49710 36034 ft 386 kts 237°
2026-05-07 18:31 39.94482 -84.54942 36042 ft 385 kts 237°
2026-05-07 18:31 39.90942 -84.60125 36045 ft 385 kts 237°
2026-05-07 18:32 39.87376 -84.65335 36050 ft 385 kts 237°
2026-05-07 18:32 39.83804 -84.70547 36047 ft 385 kts 237°
2026-05-07 18:33 39.80237 -84.75741 36055 ft 385 kts 237°
2026-05-07 18:33 39.76663 -84.80938 36053 ft 385 kts 237°
2026-05-07 18:34 39.73089 -84.86127 36055 ft 385 kts 237°
2026-05-07 18:34 39.69511 -84.91312 36054 ft 385 kts 237°
2026-05-07 18:35 39.65951 -84.96461 36045 ft 385 kts 237°
2026-05-07 18:35 39.62367 -85.01637 36044 ft 385 kts 237°
2026-05-07 18:36 39.58786 -85.06801 36045 ft 385 kts 237°
2026-05-07 18:36 39.55204 -85.11957 36049 ft 385 kts 237°
2026-05-07 18:37 39.51620 -85.17108 36049 ft 385 kts 237°
2026-05-07 18:37 39.48034 -85.22251 36040 ft 385 kts 237°
2026-05-07 18:38 39.44445 -85.27392 36042 ft 384 kts 237°
2026-05-07 18:38 39.40880 -85.32489 36039 ft 384 kts 237°
2026-05-07 18:39 39.37292 -85.37611 36041 ft 384 kts 237°
2026-05-07 18:39 39.33704 -85.42725 36051 ft 384 kts 237°
2026-05-07 18:40 39.30109 -85.47841 36048 ft 385 kts 237°
2026-05-07 18:40 39.26508 -85.52956 36045 ft 385 kts 236°
2026-05-07 18:41 39.22906 -85.58063 36052 ft 385 kts 236°
2026-05-07 18:41 39.19305 -85.63162 36055 ft 385 kts 236°
2026-05-07 18:42 39.15698 -85.68260 36063 ft 385 kts 236°
2026-05-07 18:42 39.12091 -85.73350 36065 ft 385 kts 236°
2026-05-07 18:43 39.08480 -85.78438 36066 ft 385 kts 236°
2026-05-07 18:43 39.04890 -85.83488 36057 ft 385 kts 236°
2026-05-07 18:44 39.01268 -85.88573 36057 ft 385 kts 236°
2026-05-07 18:44 38.97652 -85.93643 36052 ft 385 kts 236°
2026-05-07 18:45 38.94035 -85.98706 36058 ft 385 kts 236°
2026-05-07 18:45 38.90413 -86.03768 36051 ft 385 kts 236°
2026-05-07 18:46 38.86786 -86.08828 36053 ft 385 kts 236°
2026-05-07 18:46 38.83159 -86.13879 36058 ft 385 kts 236°
2026-05-07 18:47 38.79529 -86.18928 36061 ft 385 kts 236°
2026-05-07 18:47 38.75893 -86.23977 36060 ft 385 kts 236°
2026-05-07 18:48 38.72255 -86.29020 36060 ft 385 kts 236°
2026-05-07 18:48 38.68637 -86.34027 36067 ft 386 kts 236°
2026-05-07 18:49 38.64991 -86.39064 36063 ft 385 kts 236°
2026-05-07 18:49 38.61346 -86.44092 36063 ft 385 kts 236°
2026-05-07 18:50 38.57699 -86.49114 36057 ft 385 kts 236°
2026-05-07 18:50 38.54051 -86.54131 36059 ft 385 kts 236°
2026-05-07 18:51 38.50398 -86.59146 36060 ft 385 kts 236°
2026-05-07 18:51 38.46747 -86.64150 36062 ft 385 kts 236°
2026-05-07 18:52 38.43091 -86.69154 36061 ft 385 kts 236°
2026-05-07 18:52 38.39462 -86.74112 36064 ft 385 kts 236°
2026-05-07 18:53 38.35806 -86.79100 36086 ft 385 kts 235°
2026-05-07 18:53 38.32151 -86.84078 36087 ft 385 kts 235°
2026-05-07 18:54 38.28492 -86.89053 36088 ft 384 kts 235°
2026-05-07 18:54 38.24829 -86.94027 36085 ft 384 kts 235°
2026-05-07 18:55 38.21168 -86.98989 36087 ft 384 kts 235°
2026-05-07 18:55 38.17532 -87.03910 36083 ft 384 kts 235°
2026-05-07 18:56 38.13871 -87.08857 36085 ft 384 kts 235°
2026-05-07 18:56 38.10210 -87.13797 36088 ft 384 kts 235°
2026-05-07 18:57 38.06548 -87.18729 36089 ft 384 kts 235°
2026-05-07 18:57 38.02882 -87.23660 36093 ft 384 kts 235°
2026-05-07 18:58 37.99216 -87.28583 36096 ft 384 kts 235°
2026-05-07 18:58 37.95574 -87.33467 36092 ft 384 kts 235°
2026-05-07 18:59 37.91901 -87.38383 36086 ft 383 kts 235°
2026-05-07 18:59 37.88238 -87.43279 36086 ft 383 kts 235°
2026-05-07 19:00 37.84578 -87.48165 36093 ft 382 kts 235°
2026-05-07 19:00 37.80917 -87.53043 36091 ft 382 kts 235°
2026-05-07 19:01 37.77259 -87.57909 36100 ft 381 kts 235°
2026-05-07 19:01 37.73605 -87.62765 36107 ft 381 kts 235°
2026-05-07 19:02 37.69969 -87.67588 36099 ft 381 kts 235°
2026-05-07 19:02 37.66319 -87.72422 36099 ft 380 kts 235°
2026-05-07 19:03 37.62670 -87.77248 36092 ft 379 kts 236°
2026-05-07 19:03 37.59029 -87.82056 36089 ft 378 kts 236°
2026-05-07 19:04 37.55441 -87.86787 36101 ft 377 kts 236°
2026-05-07 19:04 37.51836 -87.91536 36088 ft 376 kts 236°
2026-05-07 19:05 37.48215 -87.96295 36086 ft 375 kts 236°
2026-05-07 19:05 37.44293 -88.00726 36091 ft 384 kts 229°
2026-05-07 19:06 37.40063 -88.04818 36090 ft 383 kts 229°
2026-05-07 19:06 37.33730 -88.10932 36084 ft 381 kts 229°
2026-05-07 19:07 37.29568 -88.14963 36084 ft 380 kts 229°
2026-05-07 19:07 37.25391 -88.19010 36091 ft 378 kts 229°
2026-05-07 19:08 37.21228 -88.23041 36085 ft 377 kts 230°
2026-05-07 19:08 37.17079 -88.27054 36085 ft 376 kts 230°
2026-05-07 19:09 37.12938 -88.31053 36082 ft 375 kts 230°
2026-05-07 19:09 37.08840 -88.35003 36074 ft 374 kts 230°
2026-05-07 19:10 37.04726 -88.38965 36081 ft 372 kts 230°
2026-05-07 19:10 37.00622 -88.42911 36077 ft 372 kts 230°
2026-05-07 19:11 36.96523 -88.46848 36078 ft 371 kts 230°
2026-05-07 19:11 36.92433 -88.50770 36076 ft 371 kts 230°
2026-05-07 19:12 36.88334 -88.54696 36079 ft 370 kts 230°
2026-05-07 19:12 36.84246 -88.58604 36087 ft 370 kts 230°
2026-05-07 19:13 36.80849 -88.61849 36080 ft 370 kts 230°
2026-05-07 19:13 36.76765 -88.65744 36075 ft 369 kts 230°
2026-05-07 19:14 36.72684 -88.69631 36083 ft 369 kts 230°
2026-05-07 19:14 36.68604 -88.73512 36080 ft 368 kts 230°
2026-05-07 19:15 36.64548 -88.77364 36081 ft 368 kts 230°
2026-05-07 19:15 36.60471 -88.81232 36083 ft 369 kts 230°
2026-05-07 19:16 36.56385 -88.85103 36086 ft 369 kts 230°
2026-05-07 19:16 36.52302 -88.88965 36077 ft 369 kts 230°
2026-05-07 19:17 36.48239 -88.92803 36076 ft 368 kts 230°
2026-05-07 19:17 36.44132 -88.96678 36070 ft 369 kts 230°
2026-05-07 19:18 36.40072 -89.00503 36076 ft 368 kts 230°
2026-05-07 19:18 36.35987 -89.04346 36081 ft 368 kts 230°
2026-05-07 19:19 36.31907 -89.08179 36079 ft 368 kts 230°
2026-05-07 19:19 36.27821 -89.12014 36083 ft 368 kts 230°
2026-05-07 19:20 36.23736 -89.15842 36084 ft 368 kts 230°
2026-05-07 19:20 36.19651 -89.19664 36080 ft 368 kts 230°
2026-05-07 19:21 36.15566 -89.23482 36084 ft 368 kts 230°
2026-05-07 19:21 36.11484 -89.27292 36088 ft 368 kts 229°
2026-05-07 19:22 36.07398 -89.31101 36087 ft 368 kts 229°
2026-05-07 19:22 36.03313 -89.34903 36088 ft 368 kts 229°
2026-05-07 19:23 35.99246 -89.38684 36087 ft 368 kts 229°
2026-05-07 19:23 35.95155 -89.42482 36087 ft 368 kts 229°
2026-05-07 19:24 35.91060 -89.46278 36094 ft 367 kts 229°
2026-05-07 19:24 35.86969 -89.50066 36091 ft 368 kts 229°
2026-05-07 19:25 35.82874 -89.53853 36095 ft 368 kts 229°
2026-05-07 19:25 35.78806 -89.57609 36093 ft 368 kts 229°
2026-05-07 19:26 35.74712 -89.61385 36088 ft 368 kts 229°
2026-05-07 19:26 35.70612 -89.65161 36090 ft 368 kts 229°
2026-05-07 19:27 35.66515 -89.68929 36093 ft 368 kts 229°
2026-05-07 19:27 35.62418 -89.72693 36084 ft 368 kts 229°
2026-05-07 19:28 35.58315 -89.76457 36080 ft 367 kts 229°
2026-05-07 19:28 35.54217 -89.80212 36086 ft 367 kts 229°
2026-05-07 19:29 35.50147 -89.83935 36083 ft 367 kts 229°
2026-05-07 19:29 35.46053 -89.87677 36080 ft 367 kts 229°
2026-05-07 19:30 35.41957 -89.91415 36081 ft 367 kts 228°
2026-05-07 19:30 35.37860 -89.95150 36080 ft 367 kts 228°
2026-05-07 19:31 35.33764 -89.98878 36077 ft 367 kts 228°
2026-05-07 19:31 35.29664 -90.02605 36082 ft 367 kts 228°
2026-05-07 19:32 35.25570 -90.06323 36085 ft 367 kts 228°
2026-05-07 19:32 35.21469 -90.10042 36090 ft 367 kts 228°
2026-05-07 19:33 35.17368 -90.13756 36091 ft 367 kts 228°
2026-05-07 19:33 35.13262 -90.17470 36084 ft 367 kts 228°
2026-05-07 19:34 35.09152 -90.21182 36082 ft 367 kts 228°
2026-05-07 19:34 35.05065 -90.24870 36086 ft 368 kts 227°
2026-05-07 19:35 35.00948 -90.28579 36085 ft 368 kts 227°
2026-05-07 19:35 34.96818 -90.32296 36086 ft 369 kts 227°
2026-05-07 19:36 34.92680 -90.36015 36089 ft 370 kts 227°
2026-05-07 19:36 34.88535 -90.39735 36094 ft 370 kts 227°
2026-05-07 19:37 34.84378 -90.43461 36101 ft 371 kts 227°
2026-05-07 19:37 34.80212 -90.47191 36097 ft 372 kts 227°
2026-05-07 19:38 34.76065 -90.50899 36099 ft 372 kts 227°
2026-05-07 19:38 34.71885 -90.54631 36097 ft 373 kts 227°
2026-05-07 19:39 34.67700 -90.58364 36096 ft 373 kts 227°
2026-05-07 19:39 34.63509 -90.62099 36098 ft 374 kts 227°
2026-05-07 19:40 34.59335 -90.65858 36095 ft 370 kts 230°
2026-05-07 19:40 34.55801 -90.70237 36094 ft 358 kts 240°
2026-05-07 19:41 34.52902 -90.75068 36097 ft 357 kts 241°
2026-05-07 19:41 34.50001 -90.79957 36105 ft 357 kts 241°
2026-05-07 19:42 34.47090 -90.84841 36106 ft 357 kts 240°
2026-05-07 19:42 34.44172 -90.89715 36100 ft 357 kts 240°
2026-05-07 19:43 34.41248 -90.94588 36113 ft 358 kts 240°
2026-05-07 19:43 34.38322 -90.99458 36108 ft 358 kts 240°
2026-05-07 19:44 34.35401 -91.04310 36105 ft 358 kts 240°
2026-05-07 19:44 34.32467 -91.09178 36110 ft 358 kts 240°
2026-05-07 19:45 34.29528 -91.14048 36112 ft 358 kts 240°
2026-05-07 19:45 34.26588 -91.18911 36112 ft 358 kts 240°
2026-05-07 19:46 34.23645 -91.23774 36110 ft 358 kts 240°
2026-05-07 19:46 34.20714 -91.28610 36113 ft 359 kts 240°
2026-05-07 19:47 34.17760 -91.33479 36109 ft 359 kts 240°
2026-05-07 19:47 34.14800 -91.38350 36111 ft 360 kts 240°
2026-05-07 19:48 34.11837 -91.43220 36107 ft 360 kts 239°
2026-05-07 19:48 34.08864 -91.48099 36107 ft 361 kts 239°
2026-05-07 19:49 34.05884 -91.52985 36105 ft 361 kts 239°
2026-05-07 19:49 34.02902 -91.57866 36106 ft 362 kts 239°
2026-05-07 19:50 33.99931 -91.62722 36101 ft 362 kts 239°
2026-05-07 19:50 33.96914 -91.67647 36103 ft 363 kts 239°
2026-05-07 19:51 33.93933 -91.72508 36102 ft 363 kts 239°
2026-05-07 19:51 33.90924 -91.77406 36096 ft 364 kts 239°
2026-05-07 19:52 33.87905 -91.82314 36097 ft 365 kts 239°
2026-05-07 19:52 33.84877 -91.87231 36098 ft 365 kts 239°
2026-05-07 19:53 33.81847 -91.92144 36094 ft 366 kts 239°
2026-05-07 19:53 33.78810 -91.97062 36096 ft 366 kts 239°
2026-05-07 19:54 33.75768 -92.01983 36089 ft 367 kts 239°
2026-05-07 19:54 33.72718 -92.06911 36092 ft 367 kts 239°
2026-05-07 19:55 33.69665 -92.11835 36097 ft 368 kts 239°
2026-05-07 19:55 33.66439 -92.16632 36093 ft 373 kts 232°
2026-05-07 19:56 33.62430 -92.20721 36093 ft 381 kts 226°
2026-05-07 19:56 33.58234 -92.24629 36090 ft 382 kts 226°
2026-05-07 19:57 33.54069 -92.28527 36095 ft 382 kts 226°
2026-05-07 19:57 33.49878 -92.32464 36082 ft 383 kts 226°
2026-05-07 19:58 33.45683 -92.36402 36090 ft 384 kts 226°
2026-05-07 19:58 33.41241 -92.40037 36089 ft 396 kts 217°
2026-05-07 19:59 33.36034 -92.42538 36081 ft 411 kts 207°
2026-05-07 19:59 33.30289 -92.43788 36081 ft 423 kts 200°
2026-05-07 20:00 33.25451 -92.44623 36080 ft 423 kts 200°
2026-05-07 20:00 33.19630 -92.45637 36079 ft 422 kts 200°
2026-05-07 20:01 33.13826 -92.46682 36082 ft 421 kts 201°
2026-05-07 20:01 33.08025 -92.47741 36087 ft 421 kts 201°
2026-05-07 20:02 33.02228 -92.48800 36093 ft 422 kts 201°
2026-05-07 20:02 32.96420 -92.49860 36091 ft 422 kts 201°
2026-05-07 20:03 32.90611 -92.50916 36090 ft 422 kts 201°
2026-05-07 20:03 32.84793 -92.51973 36084 ft 423 kts 201°
2026-05-07 20:04 32.79022 -92.53020 36082 ft 423 kts 200°
2026-05-07 20:04 32.73205 -92.54075 36084 ft 423 kts 200°
2026-05-07 20:05 32.67382 -92.55129 36085 ft 422 kts 200°
2026-05-07 20:05 32.61571 -92.56179 36080 ft 422 kts 200°
2026-05-07 20:06 32.55763 -92.57228 36083 ft 422 kts 200°
2026-05-07 20:06 32.49965 -92.58275 36079 ft 421 kts 200°
2026-05-07 20:07 32.44169 -92.59320 36080 ft 421 kts 200°
2026-05-07 20:07 32.38371 -92.60364 36083 ft 420 kts 200°
2026-05-07 20:08 32.32631 -92.61397 36081 ft 420 kts 200°
2026-05-07 20:08 32.26841 -92.62437 36077 ft 420 kts 200°
2026-05-07 20:09 32.21069 -92.63472 36081 ft 420 kts 200°
2026-05-07 20:10 32.12416 -92.65022 36079 ft 419 kts 200°
2026-05-07 20:10 32.06648 -92.66054 36080 ft 419 kts 200°
2026-05-07 20:11 32.00888 -92.67094 36074 ft 415 kts 202°
2026-05-07 20:11 31.98227 -92.68142 36084 ft 396 kts 215°
2026-05-07 20:11 31.95930 -92.69758 36070 ft 384 kts 225°
2026-05-07 20:12 31.92239 -92.74159 36073 ft 377 kts 233°
2026-05-07 20:12 31.88745 -92.78768 36081 ft 378 kts 233°
2026-05-07 20:13 31.85226 -92.83387 36079 ft 379 kts 233°
2026-05-07 20:13 31.81688 -92.87992 36069 ft 380 kts 233°
2026-05-07 20:14 31.78129 -92.92603 36068 ft 381 kts 233°
2026-05-07 20:14 31.74565 -92.97211 36081 ft 381 kts 233°
2026-05-07 20:15 31.71021 -93.01786 36066 ft 381 kts 233°
2026-05-07 20:15 31.67444 -93.06399 36070 ft 381 kts 233°
2026-05-07 20:16 31.63867 -93.11006 36072 ft 382 kts 232°
2026-05-07 20:16 31.60285 -93.15615 36069 ft 382 kts 232°
2026-05-07 20:17 31.56726 -93.20187 36066 ft 382 kts 232°
2026-05-07 20:17 31.53146 -93.24781 36067 ft 382 kts 232°
2026-05-07 20:18 31.49560 -93.29377 36059 ft 382 kts 232°
2026-05-07 20:18 31.45972 -93.33971 36060 ft 382 kts 232°
2026-05-07 20:19 31.42380 -93.38563 36054 ft 382 kts 232°
2026-05-07 20:19 31.38783 -93.43157 36053 ft 383 kts 232°
2026-05-07 20:20 31.35180 -93.47753 36057 ft 383 kts 232°
2026-05-07 20:20 31.31575 -93.52345 36057 ft 383 kts 232°
2026-05-07 20:21 31.27991 -93.56906 36054 ft 383 kts 232°
2026-05-07 20:21 31.24380 -93.61496 36055 ft 384 kts 232°
2026-05-07 20:22 31.20758 -93.66093 36058 ft 384 kts 232°
2026-05-07 20:22 31.17140 -93.70680 36055 ft 384 kts 232°
2026-05-07 20:23 31.13516 -93.75269 36057 ft 384 kts 232°
2026-05-07 20:23 31.09890 -93.79856 36055 ft 385 kts 232°
2026-05-07 20:24 31.06337 -93.84343 36050 ft 383 kts 232°
2026-05-07 20:24 31.02743 -93.88879 35829 ft 381 kts 232°
2026-05-07 20:24 31.00944 -93.91149 35586 ft 380 kts 232°
2026-05-07 20:25 30.99168 -93.93387 35347 ft 381 kts 232°
2026-05-07 20:25 30.97364 -93.95659 35117 ft 383 kts 232°
2026-05-07 20:25 30.95550 -93.97941 34880 ft 384 kts 232°
2026-05-07 20:25 30.93721 -94.00240 34064 ft 388 kts 231°
2026-05-07 20:26 30.91886 -94.02545 33186 ft 389 kts 231°
2026-05-07 20:26 30.90040 -94.04861 32268 ft 391 kts 231°
2026-05-07 20:26 30.88184 -94.07191 31336 ft 393 kts 231°
2026-05-07 20:26 30.86317 -94.09532 30383 ft 396 kts 231°
2026-05-07 20:27 30.84434 -94.11893 29292 ft 400 kts 231°
2026-05-07 20:27 30.82538 -94.14269 28242 ft 401 kts 231°
2026-05-07 20:27 30.80685 -94.16583 28022 ft 384 kts 231°
2026-05-07 20:27 30.78930 -94.18774 27887 ft 366 kts 231°
2026-05-07 20:28 30.77226 -94.20902 27721 ft 352 kts 231°
2026-05-07 20:28 30.75585 -94.22953 27136 ft 347 kts 231°
2026-05-07 20:28 30.73935 -94.25022 26471 ft 348 kts 231°
2026-05-07 20:28 30.72290 -94.27080 25889 ft 346 kts 231°
2026-05-07 20:29 30.70653 -94.29127 25338 ft 344 kts 231°
2026-05-07 20:29 30.69026 -94.31159 24805 ft 342 kts 231°
2026-05-07 20:29 30.67412 -94.33175 24265 ft 340 kts 231°
2026-05-07 20:29 30.65802 -94.35185 23724 ft 338 kts 231°
2026-05-07 20:30 30.64200 -94.37185 23107 ft 337 kts 231°
2026-05-07 20:30 30.62610 -94.39166 22542 ft 334 kts 231°
2026-05-07 20:30 30.61037 -94.41127 22020 ft 330 kts 231°
2026-05-07 20:30 30.59479 -94.43068 21487 ft 327 kts 231°
2026-05-07 20:31 30.57935 -94.44991 20970 ft 324 kts 231°
2026-05-07 20:31 30.56407 -94.46894 20452 ft 321 kts 230°
2026-05-07 20:31 30.54908 -94.48757 19955 ft 318 kts 230°
2026-05-07 20:31 30.53410 -94.50634 19447 ft 315 kts 231°
2026-05-07 20:32 30.52006 -94.52594 18842 ft 316 kts 234°
2026-05-07 20:32 30.50657 -94.54597 18323 ft 314 kts 234°
2026-05-07 20:32 30.49321 -94.56597 17751 ft 312 kts 234°
2026-05-07 20:32 30.47993 -94.58575 17212 ft 309 kts 234°
2026-05-07 20:33 30.46673 -94.60529 16709 ft 306 kts 234°
2026-05-07 20:33 30.45361 -94.62461 16207 ft 304 kts 233°
2026-05-07 20:33 30.44051 -94.64385 15706 ft 302 kts 233°
2026-05-07 20:33 30.42766 -94.66268 15232 ft 301 kts 233°
2026-05-07 20:34 30.41465 -94.68170 14737 ft 300 kts 233°
2026-05-07 20:34 30.40169 -94.70066 14249 ft 300 kts 233°
2026-05-07 20:34 30.38806 -94.71941 13684 ft 309 kts 231°
2026-05-07 20:34 30.37370 -94.73826 13140 ft 315 kts 230°
2026-05-07 20:35 30.35901 -94.75741 12601 ft 317 kts 230°
2026-05-07 20:35 30.34445 -94.77645 12065 ft 316 kts 230°
2026-05-07 20:35 30.32998 -94.79549 11549 ft 314 kts 231°
2026-05-07 20:35 30.31578 -94.81419 11338 ft 303 kts 231°
2026-05-07 20:36 30.30214 -94.83217 11158 ft 291 kts 231°
2026-05-07 20:36 30.28905 -94.84943 11030 ft 279 kts 231°
2026-05-07 20:36 30.27664 -94.86618 10943 ft 270 kts 232°
2026-05-07 20:36 30.26457 -94.88293 10878 ft 274 kts 232°
2026-05-07 20:37 30.25223 -94.90015 10824 ft 281 kts 232°
2026-05-07 20:37 30.23963 -94.91770 10737 ft 284 kts 232°
2026-05-07 20:37 30.22700 -94.93524 10643 ft 284 kts 232°
2026-05-07 20:37 30.21445 -94.95265 10578 ft 283 kts 232°
2026-05-07 20:38 30.20184 -94.97012 10486 ft 282 kts 232°
2026-05-07 20:38 30.18924 -94.98756 10396 ft 282 kts 232°
2026-05-07 20:38 30.17686 -95.00470 10337 ft 282 kts 232°
2026-05-07 20:38 30.16430 -95.02208 10256 ft 282 kts 232°
2026-05-07 20:39 30.15177 -95.03938 10179 ft 280 kts 232°
2026-05-07 20:39 30.13934 -95.05655 10084 ft 276 kts 232°
2026-05-07 20:39 30.12716 -95.07334 9976 ft 271 kts 232°
2026-05-07 20:39 30.11461 -95.08981 9584 ft 274 kts 230°
2026-05-07 20:40 30.10176 -95.10600 9219 ft 273 kts 229°
2026-05-07 20:40 30.08895 -95.12214 8850 ft 271 kts 229°
2026-05-07 20:40 30.07626 -95.13817 8480 ft 270 kts 229°
2026-05-07 20:40 30.06358 -95.15423 8121 ft 270 kts 229°
2026-05-07 20:41 30.05110 -95.17009 7878 ft 264 kts 229°
2026-05-07 20:41 30.03883 -95.18573 7656 ft 263 kts 229°
2026-05-07 20:41 30.02651 -95.20146 7454 ft 266 kts 229°
2026-05-07 20:41 30.01400 -95.21742 7233 ft 270 kts 229°
2026-05-07 20:42 30.00134 -95.23358 7074 ft 272 kts 229°
2026-05-07 20:42 29.98870 -95.24968 7018 ft 268 kts 229°
2026-05-07 20:42 29.97650 -95.26523 6837 ft 259 kts 229°
2026-05-07 20:42 29.96417 -95.28093 6413 ft 271 kts 228°
2026-05-07 20:43 29.95147 -95.29709 6302 ft 272 kts 228°
2026-05-07 20:43 29.93875 -95.31327 6185 ft 271 kts 228°
2026-05-07 20:43 29.92612 -95.32936 6045 ft 270 kts 228°
2026-05-07 20:43 29.91358 -95.34533 6008 ft 267 kts 228°
2026-05-07 20:44 29.90118 -95.36119 6005 ft 267 kts 231°
2026-05-07 20:44 29.89289 -95.38012 6008 ft 267 kts 258°
2026-05-07 20:44 29.89149 -95.40159 5920 ft 270 kts 271°
2026-05-07 20:44 29.89177 -95.42337 5696 ft 273 kts 271°
2026-05-07 20:45 29.89202 -95.44514 5415 ft 270 kts 270°
2026-05-07 20:45 29.89217 -95.46658 5143 ft 265 kts 270°
2026-05-07 20:45 29.89193 -95.48777 4812 ft 264 kts 268°
2026-05-07 20:45 29.89336 -95.50855 4416 ft 261 kts 289°
2026-05-07 20:46 29.90386 -95.52514 3950 ft 257 kts 324°
2026-05-07 20:46 29.91951 -95.53372 3520 ft 252 kts 347°
2026-05-07 20:46 29.93676 -95.53596 3062 ft 248 kts
2026-05-07 20:46 29.95390 -95.53609 2598 ft 245 kts
2026-05-07 20:47 29.97063 -95.53434 2136 ft 239 kts 23°
2026-05-07 20:47 29.98257 -95.52289 2021 ft 218 kts 59°
2026-05-07 20:47 29.98811 -95.50760 2018 ft 196 kts 69°
2026-05-07 20:47 29.99147 -95.49320 1995 ft 176 kts 81°
2026-05-07 20:48 29.99244 -95.48404 2010 ft 173 kts 82°
2026-05-07 20:48 29.99328 -95.47022 2009 ft 169 kts 86°
2026-05-07 20:48 29.99340 -95.45746 1825 ft 150 kts 88°
2026-05-07 20:48 29.99339 -95.44618 1651 ft 134 kts 87°
2026-05-07 20:49 29.99340 -95.43571 1472 ft 127 kts 87°
2026-05-07 20:49 29.99341 -95.42517 1261 ft 135 kts 87°
2026-05-07 20:49 29.99331 -95.41441 1045 ft 134 kts 85°
2026-05-07 20:49 29.99334 -95.40318 946 ft 144 kts 85°
2026-05-07 20:50 29.99339 -95.39142 743 ft 148 kts 87°
2026-05-07 20:50 29.99327 -95.37994 535 ft 143 kts 87°
2026-05-07 20:50 29.99339 -95.36830 372 ft 145 kts 87°
2026-05-07 20:50 29.99338 -95.35693 158 ft 135 kts 86°
2026-05-07 20:51 29.99344 -95.34704 106 ft 112 kts 90°
2026-05-07 20:51 29.99343 -95.33984 104 ft 68 kts 90°
2026-05-07 20:51 29.99343 -95.33594 107 ft 31 kts 89°
2026-05-07 20:51 29.99326 -95.33355 107 ft 29 kts 98°
2026-05-07 20:52 29.99247 -95.33165 106 ft 21 kts 132°
2026-05-07 20:52 29.99177 -95.33202 106 ft 11 kts 272°
2026-05-07 20:52 29.99175 -95.33286 106 ft 10 kts 267°
2026-05-07 20:52 29.99177 -95.33367 106 ft 10 kts 275°
2026-05-07 20:53 29.99177 -95.33446 106 ft 10 kts 270°
2026-05-07 20:53 29.99177 -95.33524 106 ft 10 kts 270°
2026-05-07 20:53 29.99177 -95.33614 106 ft 12 kts 270°
2026-05-07 20:53 29.99128 -95.33679 106 ft 12 kts 185°
2026-05-07 20:54 29.99045 -95.33653 106 ft 13 kts 172°
2026-05-07 20:54 29.98955 -95.33649 106 ft 13 kts 181°
2026-05-07 20:54 29.98869 -95.33667 106 ft 11 kts 189°
2026-05-07 20:54 29.98834 -95.33669 106 ft 6 kts 185°
2026-05-07 20:55 29.98806 -95.33673 106 ft 0 kts 187°